Flag for United Arab Emirates Weather past 2 weeks in Ras al-Khaimah, Ras al-Khaimah, United Arab Emirates

Now
106 °F

Passing clouds.


Feels Like: 115 °F
Forecast: 87 / 106 °F
Wind: 10 mph from Southwest

Location: Sharjah International Airport

Current Time: Jul 23, 2014 at 12:49:29 PM

Latest Report: Jul 23, 2014 at 12:00 PM


Visibility: N/A

Pressure: 29.45 "Hg

Humidity: 32%

Dew point: 70 °F

Location of Ras al-KhaimahLocation

Historic Weather in Ras al-Khaimah — Graph

°F

Ras al-Khaimah temperature yesterday

Maximum temperature yesterday: 106 °F (at 12:00 PM)
Minimum temperature yesterday: 84 °F (at 6:00 AM)
Average temperature yesterday: 96 °F

Past Weeks' High & Low Weather Summary

 TemperatureHumidityPressure
High115 °F (Jul 14, 2:00 PM)94% (Jul 11, 7:00 AM)29.56 "Hg (Jul 11, 7:00 AM)
Low84 °F (Jul 11, 6:00 AM)17% (Jul 10, 1:00 PM)29.33 "Hg (Jul 18, 5:00 PM)
Average97 °F56%29.44 "Hg
* Reported Jul 8 9:00 AM — Jul 23 9:00 AM, Ras al-Khaimah, Weather by CustomWeather, © 2014

Note: Actual official high and low records may vary slightly from our data, if they occured in-between our weather recording intervals... More about our weather records

Advertising

Ras al-Khaimah weather history for previous 24 hours

 ConditionsComfort  
Time TempWeatherWind HumidityBarometerVisibility
9:00 AM
Jul 23
95 °FPassing clouds.9 mph56%29.47 "HgN/A
8:00 AM91 °FPassing clouds.10 mph63%29.45 "HgN/A
7:00 AM88 °FSunny.9 mph70%29.45 "Hg10 mi
6:00 AM86 °FSunny.9 mph79%29.45 "Hg10 mi
5:00 AM88 °FClear.8 mph75%29.45 "Hg10 mi
4:00 AM88 °FClear.8 mph79%29.42 "Hg10 mi
9:00 PM
Jul 22
95 °FPassing clouds.8 mph63%29.45 "HgN/A
8:00 PM95 °FPassing clouds.7 mph63%29.42 "HgN/A
7:00 PM99 °FSunny.10 mph53%29.42 "Hg10 mi
6:00 PM100 °FSunny.10 mph45%29.42 "Hg10 mi
5:00 PM102 °FSunny.10 mph40%29.42 "Hg10 mi
4:00 PM104 °FPassing clouds.12 mph40%29.42 "HgN/A
3:00 PM104 °FPassing clouds.14 mph43%29.42 "HgN/A
2:00 PM106 °FPassing clouds.13 mph40%29.42 "HgN/A
1:00 PM106 °FPassing clouds.10 mph36%29.45 "HgN/A
12:00 PM106 °FPassing clouds.8 mph34%29.45 "HgN/A
Weather by CustomWeather, © 2014

See weather overviewHow to use our weather pages